Location: Newark
(15.4608°S, 41.1635°W)
Time: 14:32:55
(UTC+00:00)

Envisat - Pass Details

Date: 19 June 2021
Orbit: 764 x 766 km, 98.1° (Epoch: 25 July)

Event Time Altitude Azimuth Distance (km) Brightness Sun altitude
Rises 20:42:05 0° 189° (S) 3,246 6.1 -5.2°
Reaches altitude 10° 20:44:48 10° 203° (SSW) 2,314 5.5 -5.8°
Maximum altitude 20:48:46 23° 254° (WSW) 1,575 5.4 -6.7°
Drops below altitude 10° 20:52:44 10° 306° (NW) 2,298 7.0 -7.5°
Sets 20:55:27 0° 320° (NW) 3,218 7.5 -8.1°
